STARLINK-1025 (44730 NORAD) Tracking and Keplerian Element Data

This shows tracking and keplerian element data for the satellite.

Feedback or suggestion? Click here.




ElementValue
Catalog44730
NameSTARLINK-1025
Epoch Orbit2145
Epoch Day87.91667824
Epoch Year2020
RAAN220.5731
Inclination53.0016
Eccentricity0.0001503
Argument of Perigee73.5175
Mean Anonmoly10.2748
Mean Motion15.05606515
Decay Rate9.603E-05
L11 44730U 19074T 20087.91667824 .00009603 00000-0 67688-3 0 9995
L22 44730 53.0016 220.5731 0001503 73.5175 10.2748 15.05606515 21450

Live tracking and technical data element details for STARLINK-1025 (NORAD 44730). STARLINK-1025 can be tracked NOW for your location showing map with azimuth and elevation plus other details from your city location.

Track the satellite on the map from your city or location and see movement details for azimuth, elevation, latitude, longitude, range, height, and movement on the map or in text.







IsCatalogInMostPopularTable: catalog: 44730, numindb: 27
Update: records affected: 1



GetName: 44730 STARLINK-1025

Hit Count: updated at: Sat, 28 Mar 2020 21:03:40 GMT